RH
64 64 69 89 86 52 65 56 38 34 53 90 67 60 59 98 100 80 50 22 7 6 8 9 9 11 12 12 12 9 8 8 9 14 13 11 10 9 8 7 8 8 9 8 8
74 72 72 58 65 85 86 49 34 30 63 85 97 84 94 100 98 72 48 16 8 8 9 9 11 12 13 14 14 9 8 10 8 11 10 10 9 9 9 8 9 9 8 8 8
86 67 74 47 59 65 65 46 33 37 74 100 100 94 100 100 85 70 36 11 8 8 9 10 12 14 14 14 16 11 10 10 10 9 9 8 8 9 8 8 8 8 9 8 7
100 90 88 79 88 95 74 57 57 66 99 100 97 100 100 100 79 59 26 11 8 9 9 12 12 15 16 16 18 16 13 10 10 10 9 8 8 8 8 9 10 10 11 11 10
99 83 77 80 100 100 82 97 68 85 100 97 99 100 100 87 71 51 27 11 9 9 11 12 12 17 16 16 17 21 19 12 11 11 10 9 9 10 10 10 12 14 14 13 12
87 84 96 98 100 100 96 88 70 87 100 100 100 100 100 81 69 56 34 11 10 10 12 12 13 18 18 16 16 19 26 17 15 14 13 13 14 13 13 13 13 14 14 14 15
100 100 85 99 97 100 94 56 72 100 100 100 100 100 91 76 67 61 36 11 11 11 12 11 13 19 18 17 19 20 29 26 21 19 18 17 16 15 17 17 17 16 15 16 18
95 96 80 82 83 84 91 72 98 100 100 100 100 100 82 70 61 62 35 13 12 12 13 12 14 18 18 18 20 22 31 31 28 22 19 21 27 25 27 28 30 29 26 23 24
82 69 68 80 89 98 100 100 100 100 100 100 100 90 67 64 66 55 25 13 13 11 14 13 11 17 19 19 21 22 30 34 26 25 24 20 20 26 29 28 31 34 31 27 24
100 100 100 99 100 100 100 100 100 100 100 100 100 78 63 73 79 52 22 15 14 13 14 15 13 14 16 18 21 21 23 33 36 31 26 26 23 24 28 29 29 29 30 28 24
100 92 100 99 100 99 95 99 100 100 100 100 95 72 57 85 80 40 19 17 16 15 15 15 15 12 12 16 19 22 22 33 36 39 38 37 28 25 23 27 31 35 32 33 29
100 100 100 100 99 100 100 100 100 100 100 100 79 57 48 97 87 33 20 18 17 18 18 16 14 14 14 14 17 21 25 32 30 31 34 40 43 42 43 37 43 45 36 38 48
100 100 97 100 96 100 100 100 100 100 100 90 72 45 61 98 99 45 26 20 19 19 21 20 19 17 15 14 16 22 26 27 27 27 29 34 46 53 45 44 56 50 46 56 78
100 93 100 100 96 100 100 100 100 100 100 68 54 67 95 100 100 62 28 22 20 21 23 24 22 22 20 18 19 21 25 26 27 29 32 34 52 65 57 69 68 67 66 83 84
99 96 100 100 100 100 100 100 100 100 71 52 52 56 63 96 100 81 37 25 21 23 25 25 25 25 25 23 22 21 23 26 27 31 36 42 62 80 74 80 81 84 100 100 74
90 100 100 100 98 97 100 100 100 95 68 45 47 57 65 88 100 99 80 30 22 24 26 25 25 26 25 24 24 23 23 25 28 32 38 55 62 75 98 100 100 100 100 95 74
100 100 100 100 98 100 100 100 99 86 72 48 41 53 96 100 100 100 100 74 29 26 28 28 27 29 28 27 27 29 26 28 32 45 68 70 74 73 82 99 100 100 86 100 82
100 98 100 100 100 100 100 100 98 78 57 64 73 100 100 100 91 83 98 97 76 53 46 32 30 33 30 33 63 77 65 62 76 87 89 78 82 86 75 90 90 86 88 90 76
100 97 100 100 100 100 100 100 99 78 51 59 44 77 89 79 73 82 100 100 96 87 70 53 39 40 38 60 86 87 86 84 81 78 81 88 90 72 82 80 89 96 92 85 84
100 100 100 100 100 100 100 100 100 92 73 44 47 58 55 97 100 100 100 100 100 98 94 86 82 74 74 88 93 98 97 92 85 87 97 99 100 78 86 91 100 100 100 100 92
100 100 95 100 86 98 100 100 100 100 94 65 44 60 68 99 97 100 100 100 94 100 100 100 100 98 99 100 100 100 100 97 94 99 85 100 100 96 84 100 100 100 100 100 92
100 100 100 100 94 80 75 70 83 100 100 100 79 61 65 50 72 83 98 96 95 100 96 96 100 100 100 100 100 100 100 100 79 76 81 64 93 75 84 62 99 100 100 100 99
100 91 82 81 86 89 94 77 83 94 89 100 100 82 60 54 52 57 71 61 76 85 94 92 93 100 100 100 100 100 100 99 85 83 99 52 99 82 78 52 99 100 89 85 90
71 71 83 84 86 100 93 78 72 94 90 80 100 100 92 72 60 73 76 79 73 67 67 67 77 84 99 100 100 100 100 100 100 100 80 97 68 98 81 66 97 80 70 82 91
72 56 74 72 98 100 91 99 100 98 85 79 96 100 100 100 91 77 78 84 75 72 77 66 92 85 86 92 88 100 100 100 100 100 74 97 70 100 76 93 92 82 69 86 89
44 46 47 54 74 85 90 98 100 92 94 81 73 96 98 100 96 100 99 99 96 99 80 72 81 97 100 97 75 74 100 100 100 100 100 100 100 100 88 80 91 94 80 99 100
40 68 69 45 56 65 78 82 89 98 100 95 98 92 89 93 96 96 100 100 98 100 100 100 100 92 90 100 81 77 100 100 100 100 100 100 100 97 88 90 100 100 92 100 100
Wind_Speed
50 51 50 44 44 45 43 44 47 53 52 52 55 59 58 53 42 28 24 22 22 23 24 24 24 26 27 30 31 30 27 23 19 12 9 9 9 12 16 19 21 22 23 24 26
51 47 47 48 46 41 44 46 49 54 51 55 57 58 52 45 32 25 21 20 21 21 23 25 24 25 27 28 28 28 26 22 19 13 12 12 13 15 19 19 21 26 28 26 25
48 50 51 51 51 49 50 48 51 53 55 57 57 55 50 37 25 22 19 19 20 21 22 24 23 23 26 27 27 25 25 20 17 13 15 16 17 18 19 20 22 24 25 25 24
50 49 51 51 52 55 51 50 52 53 56 61 50 48 49 32 21 20 18 19 20 20 21 21 24 23 23 25 26 24 23 19 16 16 17 17 16 17 19 20 20 22 24 25 26
50 55 58 54 55 54 52 48 50 55 53 42 40 46 42 25 20 20 18 19 19 19 18 19 23 23 23 25 25 25 22 19 17 17 17 17 17 19 19 20 22 24 25 25 27
54 56 56 56 53 51 51 53 53 55 42 41 40 43 29 22 20 21 18 19 19 18 18 19 22 22 24 24 26 26 22 18 19 19 17 17 18 19 20 20 23 25 28 28 29
46 51 50 52 54 54 55 57 57 44 40 41 39 37 25 22 21 20 20 21 20 19 20 21 22 22 22 25 28 26 24 20 18 19 19 19 19 20 22 24 25 26 27 28 30
43 47 51 56 55 52 54 59 46 43 41 39 35 27 23 22 22 21 21 22 21 22 21 22 21 22 22 27 28 26 25 23 20 19 19 20 21 23 25 27 30 31 31 33 35
42 45 48 44 46 46 47 42 38 39 38 35 27 24 21 23 24 22 21 22 23 24 23 23 23 22 25 26 29 26 26 26 23 23 23 22 21 25 26 28 30 33 34 35 36
40 38 41 42 42 40 39 40 37 38 38 33 23 22 23 26 24 23 22 23 25 26 26 26 26 25 25 26 27 26 27 29 28 27 27 28 28 28 32 33 32 34 36 37 40
39 41 43 42 42 38 37 31 34 36 36 26 23 21 26 26 25 24 23 24 25 28 29 30 31 30 29 27 29 28 27 29 30 30 32 33 33 33 32 35 38 39 39 42 45
41 43 44 44 42 36 30 34 33 34 33 25 23 26 25 28 26 25 25 25 25 26 28 32 34 34 34 31 31 30 28 29 31 32 33 35 36 37 37 37 41 41 41 44 49
43 44 39 38 36 34 33 35 34 35 29 25 26 27 28 29 28 28 28 28 28 27 29 31 32 34 34 34 33 32 31 30 32 34 36 37 39 39 37 36 42 40 42 45 49
43 42 37 37 37 32 36 34 36 36 28 26 29 29 28 31 31 29 31 31 30 28 31 31 31 33 34 35 36 35 33 34 36 38 40 40 41 39 36 40 41 42 43 46 50
41 38 37 36 34 33 34 36 40 33 28 29 29 30 29 31 32 33 34 34 33 29 32 32 31 31 32 34 35 36 37 38 39 41 42 42 44 43 40 41 43 44 43 47 50
38 36 33 33 34 34 37 39 36 32 30 29 29 30 32 34 34 36 35 35 35 32 34 33 33 33 33 34 35 37 38 40 41 43 43 43 45 46 46 46 44 43 46 48 53
38 37 33 34 36 37 38 40 35 33 31 28 29 30 33 31 32 35 36 36 37 36 36 36 35 36 36 36 37 38 39 41 43 43 44 46 48 45 45 46 43 44 47 49 55
37 38 33 32 33 35 39 40 37 35 32 32 35 35 35 34 36 37 39 39 40 40 41 40 39 39 38 39 39 39 39 41 42 43 45 47 46 48 46 46 44 47 49 53 57
30 31 28 32 35 38 40 41 39 40 35 38 37 42 39 39 42 43 44 44 45 43 43 42 42 42 42 43 42 42 42 43 44 43 45 48 49 49 49 49 49 49 51 55 59
30 31 35 32 31 34 40 42 42 41 38 38 39 38 36 40 38 37 41 39 42 42 46 45 44 47 47 48 48 47 48 47 46 43 43 48 51 53 48 51 51 52 53 56 58
37 37 38 39 36 34 35 37 43 44 41 41 41 41 42 44 43 38 36 38 37 41 42 41 46 52 51 52 51 51 50 47 45 44 42 38 52 51 47 52 53 54 55 58 60
44 43 39 38 42 44 44 42 41 43 44 45 44 45 46 46 49 46 45 43 40 39 38 38 39 46 47 49 49 50 50 47 44 48 49 50 46 57 55 56 53 53 53 58 60
48 48 50 48 49 49 48 46 46 46 44 47 49 49 50 49 46 48 50 47 50 50 48 48 45 47 47 50 51 51 51 51 53 53 52 54 49 62 59 56 51 55 60 60 62
52 51 50 51 50 53 52 51 52 52 49 48 49 54 53 51 49 49 51 50 48 47 49 48 50 52 54 53 52 53 56 58 58 57 56 56 56 63 63 57 60 60 62 62 60
53 54 52 55 56 58 56 55 57 56 55 55 54 54 53 56 58 54 54 56 55 54 54 51 53 54 55 56 53 55 60 63 59 61 58 58 61 61 65 62 64 64 61 61 62
59 58 57 58 57 61 61 59 59 62 57 59 58 59 55 55 58 60 60 60 59 61 60 59 58 59 58 61 55 50 61 64 65 66 65 62 59 68 63 62 64 64 61 63 65
66 65 63 61 62 61 64 64 64 63 62 62 63 64 63 63 64 61 61 60 61 62 64 63 64 64 60 65 61 54 65 64 62 64 66 64 66 62 61 62 64 67 65 67 68
Wind_Direction
243 246 243 250 258 264 276 285 288 293 294 298 300 304 311 312 312 319 319 318 315 315 322 327 334 340 343 347 348 352 351 352 354 345 349 342 312 306 324 327 330 332 332 327 325
236 237 240 251 257 265 277 284 288 289 289 294 299 304 310 304 311 318 315 313 311 317 322 327 333 336 340 347 348 354 355 355 4 6 0 349 334 328 327 324 328 328 328 327 320
230 236 242 248 256 267 272 282 285 288 290 291 297 306 303 299 308 311 310 307 307 317 322 326 331 334 339 348 348 354 357 356 360 3 356 346 341 339 332 328 330 332 332 330 322
233 239 245 252 259 264 269 281 283 289 288 290 301 300 296 298 311 304 302 299 303 315 321 324 327 329 336 348 349 351 355 355 353 349 350 349 345 341 342 335 335 333 332 331 327
237 244 252 257 262 263 272 276 280 285 288 296 297 294 292 297 306 303 300 296 302 310 317 318 323 321 323 336 346 347 350 349 350 350 353 348 351 352 346 334 334 334 333 328 325
244 248 256 260 259 260 269 274 278 280 284 291 290 292 285 298 301 297 293 290 296 305 307 315 324 317 321 330 339 342 348 344 349 350 352 350 355 353 350 345 342 337 336 335 332
241 247 253 257 260 262 270 275 275 274 282 282 283 283 285 296 294 292 285 285 294 298 300 313 320 315 320 327 336 335 345 343 346 352 351 353 348 351 349 349 351 352 348 346 342
239 243 253 259 262 265 269 271 272 275 275 274 276 275 290 289 286 282 278 283 289 292 296 305 314 313 313 321 330 331 338 339 340 344 345 346 348 345 345 344 342 342 342 344 343
242 249 254 257 259 258 260 264 265 271 269 269 266 277 286 281 281 274 274 283 286 289 288 296 307 310 312 317 326 326 329 332 332 334 335 338 341 337 338 336 336 335 336 335 335
235 239 244 249 251 254 257 262 266 267 268 268 264 276 284 273 274 270 274 280 283 283 283 288 297 302 308 313 320 320 322 327 329 327 328 328 331 331 330 329 329 329 329 332 332
237 242 240 243 245 253 256 261 266 267 264 257 269 276 275 270 267 267 270 275 280 284 285 287 291 295 301 305 310 315 318 320 322 322 324 323 322 322 324 327 327 324 325 329 331
237 240 242 246 251 250 256 264 264 264 258 257 272 274 273 266 263 267 269 273 279 284 287 287 286 290 294 298 302 307 309 312 315 315 317 316 316 320 321 322 324 323 325 326 328
242 244 247 252 254 255 259 263 262 258 253 260 268 270 271 269 264 265 268 269 273 281 286 287 285 288 291 294 296 299 303 307 308 310 311 311 312 314 317 318 324 323 323 323 324
249 254 254 251 254 257 263 263 259 253 250 262 265 266 270 273 266 263 269 268 269 277 283 285 287 288 289 292 295 294 298 302 306 309 310 311 312 313 312 319 321 325 321 318 319
255 251 252 252 253 258 257 260 258 250 248 259 263 266 268 274 268 263 269 267 267 274 280 282 284 287 288 290 293 292 294 299 304 307 309 311 312 313 310 314 318 321 321 314 315
250 246 252 251 253 257 257 256 257 249 254 257 261 264 268 272 272 265 267 268 269 274 276 280 285 287 287 289 290 290 290 294 299 304 307 309 311 313 312 313 314 318 317 314 314
241 246 248 250 253 254 255 255 249 250 255 261 266 262 266 270 276 278 272 267 268 270 273 277 282 286 288 290 291 290 291 294 299 302 305 307 308 312 313 318 313 313 314 316 315
241 242 248 253 255 258 256 254 247 249 251 255 260 261 268 267 271 279 279 269 267 269 273 276 279 284 287 289 290 291 293 295 297 299 302 304 307 309 313 316 315 312 313 313 315
244 244 251 257 254 257 260 258 248 252 252 251 256 255 260 269 276 280 281 273 274 269 270 276 281 283 284 286 288 290 293 294 296 300 303 306 307 307 311 313 318 317 315 314 315
244 249 245 247 249 255 258 257 257 255 257 257 257 261 261 269 275 283 281 283 281 281 272 274 278 281 282 284 286 289 291 293 295 302 306 308 308 307 312 312 315 316 315 314 317
245 248 249 250 255 257 257 263 262 262 259 262 260 259 261 264 268 276 281 282 284 285 285 288 288 280 285 286 290 292 294 295 301 302 306 309 307 309 316 313 313 312 312 314 318
251 252 252 255 256 257 260 261 263 264 262 261 262 263 264 266 269 270 275 278 282 286 284 285 289 288 289 290 292 294 296 296 296 299 302 304 310 305 313 314 311 309 312 314 314
252 258 257 258 260 261 263 265 266 266 261 261 261 261 264 266 268 273 274 277 277 277 280 284 286 285 286 287 288 290 292 294 297 297 295 305 301 306 311 311 308 309 312 312 312
251 254 257 259 260 257 263 265 266 266 266 262 264 264 263 265 267 268 272 274 274 276 276 280 282 283 282 284 288 291 292 291 293 292 294 297 303 305 308 311 306 308 309 310 311
250 254 257 257 258 259 260 262 262 264 267 267 269 267 265 264 265 266 269 272 275 276 277 278 281 282 283 283 286 287 291 292 292 291 294 293 301 299 306 306 306 307 309 308 309
251 252 253 255 256 258 260 262 262 263 262 267 266 267 269 269 267 266 266 269 273 276 278 279 280 282 286 285 286 293 289 289 292 293 295 295 298 298 301 303 305 306 307 307 308
249 248 254 259 257 257 260 261 262 262 264 265 267 267 267 269 270 269 270 273 276 277 278 280 281 280 281 281 288 295 285 287 288 291 292 294 295 296 301 303 302 303 305 304 306